San Antonio, TX

10:33 AM CDT on March 24, 2017 (GMT -0500)
San Antonio International

Weather History for KSAT - April, 2013

Change the Weather History Date:

Monday, April 8, 2013

  Actual Average Record
Temperature  
Mean Temperature 72 °F 68 °F  
Max Temperature 77 °F 79 °F 98 °F (1989)
Min Temperature 67 °F 56 °F 35 °F (2007)
Degree Days  
Heating Degree Days 0 2  
Month to date heating degree days 24 18  
Since 1 July heating degree days 1158 1473  
Cooling Degree Days 7 4  
Month to date cooling degree days 30 31  
Year to date cooling degree days 147 122  
Growing Degree Days 22 (Base 50)    
Moisture  
Dew Point 65 °F    
Average Humidity 80    
Maximum Humidity 90    
Minimum Humidity 69    
Precipitation  
Precipitation T in 0.05 in 1.53 in (1929)
Month to date precipitation 1.49 0.46  
Year to date precipitation 5.37 6.32  
Snow  
Snow 0.00 in - - ()
Month to date snowfall T  
Since 1 July snowfall T  
Snow Depth 0.00 in    
Sea Level Pressure  
Sea Level Pressure 29.71 in    
Wind  
Wind Speed 14 mph (SSE)    
Max Wind Speed 23 mph    
Max Gust Speed 29 mph    
Visibility 8 miles    
Events Rain    
T = Trace of Precipitation, MM = Missing Value Source: NWS Daily Summary

Daily Weather History Graph

Daily Weather History Graph

Search for Another Location

Airport or City:

Trip Planner

Search our weather history database for the weather conditions in past years. The results will help you decide how hot, cold, wet, or windy it might be!

Date:

Astronomy

Apr. 08, 2013 Rise Set
Actual Time 7:14 AM CDT 7:56 PM CDT
Civil Twilight 6:50 AM CDT 8:20 PM CDT
Nautical Twilight 6:22 AM CDT 8:49 PM CDT
Astronomical Twilight 5:53 AM CDT 9:18 PM CDT
Moon 5:59 AM CDT (4/8) 6:36 PM CDT (4/8)
Length of Visible Light 13h 30m
Length of Day
12h 41m
Waning Crescent, 3% of the Moon is Illuminated
Apr 8
Waning Crescent
Apr 10
New
Apr 18
First Quarter
Apr 25
Full
May 2
Last Quarter

Hourly Weather History & Observations

Time (CDT) Temp. Dew Point Humidity Pressure Visibility Wind Dir Wind Speed Gust Speed Precip Events Conditions
12:51 AM 68.0 °F 62.1 °F 81% 29.80 in 10.0 mi SSE 15.0 mph 21.9 mph N/A   Overcast
1:51 AM 68.0 °F 62.1 °F 81% 29.79 in 10.0 mi South 13.8 mph - N/A   Light Drizzle
2:51 AM 68.0 °F 63.0 °F 84% 29.76 in 9.0 mi SE 9.2 mph - 0.00 in   Light Drizzle
3:51 AM 68.0 °F 63.0 °F 84% 29.73 in 10.0 mi SE 10.4 mph - 0.00 in   Overcast
4:51 AM 68.0 °F 63.0 °F 84% 29.71 in 10.0 mi SSE 13.8 mph - N/A   Overcast
5:43 AM 68.0 °F 64.4 °F 88% 29.76 in 8.0 mi SSE 13.8 mph - N/A   Overcast
5:51 AM 68.0 °F 64.0 °F 87% 29.71 in 8.0 mi SSE 11.5 mph - N/A   Overcast
6:51 AM 66.9 °F 64.0 °F 90% 29.72 in 8.0 mi SE 9.2 mph - 0.00 in   Light Drizzle
7:51 AM 68.0 °F 64.9 °F 90% 29.73 in 5.0 mi SE 10.4 mph - 0.00 in   Light Drizzle
8:51 AM 68.0 °F 64.9 °F 90% 29.74 in 6.0 mi SSE 10.4 mph - 0.00 in   Light Drizzle
9:51 AM 69.1 °F 66.0 °F 90% 29.75 in 5.0 mi SSE 10.4 mph - 0.00 in   Light Drizzle
10:51 AM 71.1 °F 66.0 °F 84% 29.75 in 7.0 mi SSE 13.8 mph - 0.00 in   Overcast
11:51 AM 72.0 °F 66.0 °F 81% 29.74 in 8.0 mi SSE 15.0 mph - N/A   Overcast
12:02 PM 71.6 °F 66.2 °F 83% 29.78 in 9.0 mi SSE 15.0 mph - N/A   Overcast
12:51 PM 72.0 °F 66.0 °F 81% 29.73 in 9.0 mi South 18.4 mph 23.0 mph N/A   Overcast
1:51 PM 73.0 °F 66.0 °F 79% 29.70 in 8.0 mi South 12.7 mph - N/A   Overcast
2:51 PM 73.9 °F 66.0 °F 76% 29.68 in 10.0 mi South 11.5 mph - N/A   Overcast
3:51 PM 75.0 °F 66.0 °F 73% 29.65 in 8.0 mi South 10.4 mph - N/A   Overcast
4:51 PM 75.0 °F 66.0 °F 73% 29.65 in 8.0 mi SE 9.2 mph - N/A   Overcast
5:22 PM 75.2 °F 66.2 °F 73% 29.69 in 8.0 mi SSE 10.4 mph - N/A   Overcast
5:51 PM 77.0 °F 66.9 °F 71% 29.64 in 8.0 mi SSE 10.4 mph - N/A   Overcast
6:38 PM 75.2 °F 66.2 °F 73% 29.68 in 8.0 mi SE 15.0 mph - N/A   Overcast
6:51 PM 75.9 °F 66.0 °F 71% 29.63 in 9.0 mi ESE 16.1 mph - N/A   Overcast
7:51 PM 73.9 °F 66.0 °F 76% 29.63 in 10.0 mi ESE 19.6 mph 27.6 mph N/A   Overcast
8:51 PM 72.0 °F 66.0 °F 81% 29.65 in 10.0 mi SE 16.1 mph - N/A   Overcast
9:51 PM 71.1 °F 66.0 °F 84% 29.67 in 9.0 mi SE 17.3 mph - N/A   Overcast
9:57 PM 71.6 °F 66.2 °F 83% 29.71 in 9.0 mi SE 17.3 mph - N/A   Overcast
10:51 PM 71.1 °F 66.9 °F 87% 29.67 in 8.0 mi SE 15.0 mph - N/A   Overcast
11:51 PM 71.6 °F 66.2 °F 83% 29.72 in 8.0 mi SE 18.4 mph 25.3 mph N/A   Light Drizzle